Wetbulb
67.36 64.23 65.48 68.75 68.54 69.81 71.60 73.54 77.11 77.80 76.37 77.54 77.70 77.43 77.80 75.82 75.07 75.54 74.21 75.19 74.52 70.67
66.30 67.02 66.38 69.80 72.23 68.82 71.35 71.62 74.86 78.05 76.90 77.40 77.08 77.23 77.45 74.88 75.70 75.33 75.20 74.76 75.54 73.03
64.47 66.15 67.29 69.02 70.26 70.87 72.55 72.75 72.37 74.67 75.93 75.62 76.35 76.59 76.59 75.71 76.07 74.72 73.68 72.93 74.07 73.15
63.11 63.38 66.01 67.44 69.56 70.24 72.67 73.71 73.88 72.51 73.59 74.90 75.11 75.72 76.35 75.25 74.32 73.91 74.44 74.21 73.42 73.12
63.37 64.15 65.68 66.88 68.28 70.39 71.54 72.68 72.62 72.88 73.03 73.24 74.83 75.62 75.04 73.25 72.50 73.25 72.37 72.91 72.72 72.01
64.29 65.02 65.31 66.27 67.90 70.10 70.52 71.32 72.03 72.10 72.34 72.95 73.94 74.07 74.51 73.17 72.56 73.08 73.01 73.28 72.62 71.29
63.92 65.00 65.43 66.93 67.67 68.65 69.70 70.10 70.32 72.56 72.31 72.88 72.97 73.21 73.25 73.37 73.69 73.53 73.10 73.03 71.77 71.17
63.36 64.22 63.56 64.99 66.91 68.32 69.82 69.71 70.01 70.95 71.83 73.44 73.34 72.30 73.90 73.92 74.01 73.54 72.89 72.86 71.51 71.73
61.19 62.07 64.19 66.55 67.33 68.85 70.04 70.57 71.00 71.25 71.52 72.94 71.15 57.38 58.37 69.71 73.11 72.07 71.39 70.49 70.41 70.54
60.51 60.99 62.08 64.13 65.75 68.08 70.56 72.01 72.02 72.21 72.69 73.53 73.55 53.65 55.13 59.61 72.41 71.90 71.87 70.94 70.48 68.80
59.36 60.49 61.63 64.89 65.37 68.77 71.27 72.18 73.05 73.66 73.63 74.25 69.27 51.30 52.26 56.70 71.57 70.82 70.29 69.90 69.60 69.37
58.70 60.13 62.20 63.83 66.22 69.43 71.29 72.21 73.10 73.62 73.60 71.96 66.27 49.11 52.05 60.58 69.97 69.07 68.67 68.73 68.60 68.09
59.11 60.88 63.46 65.45 67.74 69.83 71.64 72.29 72.34 71.42 72.71 63.61 68.06 46.92 50.43 58.16 68.10 68.02 66.70 68.09 67.81 54.71
59.54 62.64 64.65 67.51 69.31 70.39 71.10 68.98 68.53 69.27 68.93 68.74 66.30 59.64 46.75 49.11 66.76 66.43 66.09 65.41 66.00 65.12
MSLP
1004.59 1004.19 1003.84 1003.12 1003.13 1002.30 1001.42 1000.87 1001.13 1001.89 1002.63 1003.08 1003.19 1003.87 1004.19 1004.66 1005.24 1005.68 1006.01 1006.04 1006.15 1005.56
1003.23 1003.29 1002.94 1002.80 1002.71 1002.17 1001.90 1001.46 1000.95 1001.34 1002.13 1002.33 1002.66 1003.15 1003.75 1004.28 1004.52 1004.79 1005.29 1005.46 1005.80 1005.73
1002.44 1002.36 1002.36 1002.52 1002.35 1002.12 1001.75 1001.53 1001.38 1001.32 1001.43 1001.66 1002.01 1002.68 1003.41 1003.41 1003.67 1004.19 1004.43 1004.80 1005.23 1005.63
1001.70 1001.68 1001.88 1001.80 1001.61 1001.51 1001.24 1000.84 1000.55 1000.77 1000.87 1001.19 1001.44 1001.82 1002.36 1002.56 1002.74 1003.41 1004.00 1004.30 1004.65 1005.03
1000.91 1001.00 1001.13 1000.96 1000.81 1000.67 1000.23 1000.20 1000.20 1000.13 1000.00 1000.45 1000.59 1001.19 1001.64 1001.95 1001.85 1002.66 1003.30 1003.83 1004.23 1004.60
1000.26 1000.35 1000.17 1000.18 1000.07 999.87 999.53 999.56 999.40 999.41 999.16 999.20 999.63 1000.40 1001.09 1001.16 1001.44 1001.92 1002.54 1003.27 1003.78 1004.28
999.42 999.34 999.34 999.20 999.02 999.02 998.83 998.57 998.55 998.53 998.42 998.44 998.87 999.55 1000.14 1000.66 1000.88 1001.47 1002.18 1002.89 1003.44 1003.96
998.71 998.54 998.58 998.46 998.21 997.96 997.76 997.70 997.93 997.59 997.62 997.81 998.23 998.58 999.36 999.86 1000.58 1001.19 1001.79 1002.48 1003.21 1003.71
998.09 997.84 997.55 997.45 997.47 997.38 997.13 997.07 997.21 997.03 997.03 997.39 997.67 998.26 999.31 999.77 1000.55 1001.26 1001.85 1002.63 1003.35 1003.79
997.32 997.16 996.81 996.66 996.46 996.10 996.26 996.66 996.52 996.53 996.73 997.21 998.24 999.11 999.64 1000.26 1000.64 1001.19 1001.82 1002.58 1003.24 1003.78
996.30 996.07 995.93 995.51 995.46 995.12 995.48 995.84 995.92 996.11 996.51 997.26 998.95 999.72 999.97 1000.66 1000.81 1001.45 1002.02 1002.66 1003.08 1003.34
995.60 995.25 995.03 994.33 994.65 994.67 994.90 995.08 995.33 995.71 996.34 997.55 999.40 1000.12 1000.21 1000.90 1001.14 1001.48 1001.79 1002.06 1002.49 1003.03
994.74 994.24 993.98 993.90 994.24 994.25 994.34 994.61 994.90 995.71 996.47 997.64 999.26 1000.43 1000.56 1000.96 1000.50 1001.10 1001.41 1001.86 1002.91 1003.86
994.11 993.86 993.66 994.02 993.91 993.84 994.22 994.88 995.39 996.23 997.14 998.12 999.10 1000.44 1001.31 1001.45 1001.08 1000.76 1001.57 1002.23 1002.96 1003.69
Wind_Speed
9 9 10 11 12 11 10 9 11 14 13 13 12 13 11 10 11 11 11 12 11 10
10 10 10 11 11 11 13 12 10 11 13 13 13 12 12 10 13 11 11 11 10 10
11 11 10 11 13 13 12 12 14 10 12 13 13 14 15 12 11 11 10 10 10 10
10 12 12 12 13 13 12 12 13 15 15 14 14 15 14 13 12 13 11 10 12 11
12 12 12 12 13 13 12 12 13 13 13 15 15 14 15 15 13 14 14 11 11 8
13 12 13 13 13 14 12 12 13 15 16 16 16 15 15 15 14 14 13 12 11 9
13 12 13 13 14 14 14 15 15 14 16 16 16 16 16 15 12 12 12 9 8 10
14 14 15 15 15 15 15 14 17 16 17 14 13 12 14 13 12 11 12 10 10 9
15 17 15 14 16 15 16 15 15 15 16 14 12 13 13 11 10 12 11 10 11 8
16 17 17 17 17 16 15 14 14 15 14 13 12 14 15 10 10 11 9 9 8 10
17 17 18 18 16 16 12 14 13 13 13 12 10 11 15 11 10 9 10 11 11 11
18 18 20 17 16 16 13 14 13 13 14 15 12 9 15 12 12 12 11 10 10 9
17 18 20 14 17 16 13 14 13 13 13 13 15 9 14 11 9 10 8 7 8 9
15 18 13 17 15 13 13 12 12 12 10 14 15 10 4 5 5 9 7 7 8 6
Wind_Direction
244 252 248 240 256 267 252 245 221 189 202 212 209 206 213 214 214 214 217 237 232 264
265 259 269 281 280 250 259 271 249 190 199 204 210 208 207 208 203 215 208 219 229 236
259 259 258 254 253 261 262 237 261 227 211 204 205 205 203 199 204 202 211 224 200 220
266 259 254 254 253 249 249 250 224 223 210 205 206 201 195 205 199 198 210 215 199 199
270 259 258 257 262 258 248 239 236 228 215 213 206 197 197 201 207 192 207 203 205 202
259 258 257 257 258 260 254 243 233 225 220 211 203 194 199 202 210 191 199 202 202 204
268 264 258 254 251 252 248 244 234 228 224 215 205 197 197 204 202 184 193 191 195 211
266 261 255 253 257 252 247 240 237 223 223 211 208 198 194 196 195 176 190 184 198 205
262 268 256 245 239 244 245 236 235 229 215 210 210 166 171 182 170 189 186 185 195 164
260 257 259 255 256 235 230 233 225 227 208 203 195 138 130 145 178 188 181 182 186 191
262 253 255 249 247 246 218 219 212 210 195 181 136 141 129 159 184 172 178 185 187 208
257 251 252 247 245 239 212 205 199 192 178 144 143 157 141 170 166 174 180 184 195 191
256 250 251 251 244 222 204 195 189 172 162 133 149 164 163 188 181 166 178 172 132 65
253 254 252 250 235 200 187 174 153 144 132 151 154 150 120 78 294 157 171 192 177 133